User: anonymous   Login
Location: Bittelbronn
(48.4454°N, 8.5870°E)
Time: 19:43:17
(UTC+00:00)
Language:

Meteor 1-28 Rocket - Orbit

View from above orbital plane
View from above orbital plane
View from above satellite
View from above satellite

Ground track
Ground track

The orbit data is extracted from the following two-line orbital elements,

1 10114U 77057B   24198.49605008  .00010630  00000-0  38565-3 0  9999
2 10114  97.5122 343.0503 0009222 276.4358  83.5832 15.28479446576178
Epoch (UTC): 16 July 2024 11:54:18
Eccentricity: 0.0009222
inclination: 97.5122°
perigee height: 474 km
apogee height: 486 km
right ascension of ascending node: 343.0503°
argument of perigee: 276.4358°
revolutions per day: 15.28479446
mean anomaly at epoch: 83.5832°
orbit number at epoch: 57617

The dashed part of the orbit path shows where the satellite is in the earth's shadow,  

DLR